Regional Weather Roundup
Issued by NWS Northern Indiana

Home | Current Version | Previous Version | Graphics & Text | Print | Product List | Glossary Off
Versions: 1 2 3 4 5 6 7 8 9 10 11 12 13 14 15 16 17 18 19 20 21 22 23 24 25 26 27 28 29 30 31 32 33 34 35 36 37 38 39 40 41 42 43 44 45 46 47 48 49 50

000
ASUS43 KIWX 281410
RWRIWX

KIWX WEATHER ROUNDUP
NATIONAL WEATHER SERVICE NORTHERN INDIANA
1000 AM EDT MON JUL 28 2014

NOTE: "FAIR" INDICATES FEW OR NO CLOUDS BELOW 12,000 FEET WITH NO
SIGNIFICANT WEATHER AND/OR OBSTRUCTIONS TO VISIBILITY.

* THESE STATIONS ARE NOT UNDER NWS QUALITY CONTROL. THEY ALSO MAY NOT
  REPORT WEATHER SUCH AS PRECIPITATION OR FOG.

INZ001>027-281500-
NORTHERN INDIANA

CITY           SKY/WX    TMP DP  RH WIND       PRES   REMARKS
GARY*          PTSUNNY   64  54  68 NW17G30   30.04R
VALPARAISO     CLOUDY    60  53  77 N9G18     30.03R
MICHIGAN CITY* CLOUDY    59  52  77 N12G17    30.02R
LAPORTE*       CLOUDY    59  54  83 N10       30.02R
KNOX*          CLOUDY    61  54  76 NW14G20   30.00R
SOUTH BEND     CLOUDY    63  54  72 NW13      30.00R
GOSHEN         CLOUDY    62  55  77 N10       29.97R
MONTICELLO*    CLOUDY    63  56  78 N15       29.99R
LOGANSPORT*    CLOUDY    61  54  77 N10G18    29.99R
ROCHESTER*     CLOUDY    64  55  72 N12       29.98S
WARSAW*        CLOUDY    61  55  82 NW6       29.97R
ANGOLA*        CLOUDY    63  54  72 N5        29.94R
FORT WAYNE     PTSUNNY   65  59  81 NW12      29.95R
HUNTINGTON*    CLOUDY    63  58  84 NW8       29.95R
PERU/GRISSOM   CLOUDY    63  60  91 NW15      29.98R
MARION*        CLOUDY    62  57  84 NW9       29.97R

$$
INZ028>050-281500-
CENTRAL INDIANA

CITY           SKY/WX    TMP DP  RH WIND       PRES   REMARKS
LAFAYETTE      MOSUNNY   66  56  70 N13       30.00R
KOKOMO*        CLOUDY    63  57  82 N9        29.98R
MUNCIE*        CLOUDY    64  58  80 NW10      29.95R
INDIANAPOLIS   CLOUDY    63  56  78 NW14      29.98R

$$
MIZ043>046-050>051-056>058-064>065-071>073-077>080-281500-
SOUTHWEST LOWER MICHIGAN

CITY           SKY/WX    TMP DP  RH WIND       PRES   REMARKS
BATTLE CREEK   CLOUDY    62  55  77 N7        29.96R
BENTON HARBOR  CLOUDY    58  53  84 VRB5G20   30.00R
COLDWATER*     CLOUDY    63  56  80 N9        29.95R
HILLSDALE*     CLOUDY    64  58  83 N9        29.93R
HOLLAND        CLOUDY    62  54  74 VRB5      30.00R
GRAND RAPIDS   PTSUNNY   63  56  78 N10       29.97R
KALAMAZOO      CLOUDY    62  55  77 N9        29.97R
STURGIS*       CLOUDY    61  57  88 N5        29.96R
THREE RIVERS*  CLOUDY    62  57  82 N5        29.97R

$$
OHZ001>008-015>018-024>025-281500-
NORTHWEST OHIO

CITY           SKY/WX    TMP DP  RH WIND       PRES   REMARKS
WAUSEON*       PTSUNNY   64  55  72 N14       29.90R
DEFIANCE       CLOUDY    67  57  70 NW14      29.92R
FINDLAY        CLOUDY    66  58  75 NW13      29.88R
TOLEDO EXPRESS PTSUNNY   66  55  67 NW14      29.88R
TOLEDO METCALF PTSUNNY   66  53  63 N15       29.89R
LIMA           CLOUDY    66  59  78 NW14G20   29.90R

$$
&&


USA.gov is the U.S. government's official web portal to all federal, state and local government web resources and services.